Wind_Speed
36 35 34 33 32 31 31 29 28 26 23 21 19 18 17 16 15 15 13 13 12 12 12 13 13 13 13 13 14 15 16 17 16 16 17 17 16 16 16 17 17 17 16 16
38 37 36 35 34 34 33 31 29 27 25 23 22 20 19 18 17 17 16 15 15 14 14 14 15 15 15 15 16 16 17 18 17 17 18 17 18 18 18 18 18 17 17 17
38 38 37 37 36 35 35 33 31 28 25 25 24 22 21 20 19 19 18 18 17 17 17 16 16 16 17 17 17 18 19 19 19 19 19 19 19 19 20 20 20 19 19 18
37 37 39 38 35 35 34 33 32 30 28 27 26 24 23 22 22 21 20 20 20 20 19 17 18 18 18 19 19 19 20 20 20 20 20 20 21 21 21 22 21 21 20 20
39 38 39 38 37 36 36 35 33 31 30 29 28 27 25 24 24 24 23 23 22 21 21 20 20 20 20 21 21 21 21 21 21 21 22 22 22 22 22 22 22 22 21 20
41 40 40 38 37 38 37 37 34 32 31 30 30 29 27 26 26 26 26 25 24 24 24 23 23 23 23 23 23 23 22 22 22 22 22 22 23 23 23 23 23 23 22 21
41 41 40 39 37 37 38 37 35 34 32 32 31 30 29 29 28 28 27 26 26 27 27 26 26 26 26 25 24 23 23 23 23 23 23 24 24 24 24 24 24 24 24 23
41 41 40 39 38 37 37 36 35 35 33 32 32 31 31 31 30 29 28 28 29 29 29 28 27 27 27 27 26 26 25 25 25 25 25 25 25 25 26 25 25 25 26 25
42 41 39 38 38 37 36 36 36 36 36 34 33 32 32 31 30 29 30 30 31 31 30 29 29 29 29 29 29 28 27 26 26 27 27 27 27 27 27 27 27 27 27 27
41 40 39 38 38 38 37 36 35 35 36 36 34 33 32 32 30 30 31 32 33 31 30 30 30 30 30 31 30 30 29 29 29 29 29 29 29 29 29 29 29 29 28 29
42 40 39 38 38 38 37 36 35 35 34 34 34 33 31 31 30 30 29 30 31 32 32 32 32 32 32 32 32 32 32 32 31 31 32 32 32 32 31 31 31 31 30 31
41 41 40 38 38 38 38 38 37 36 35 33 32 32 32 32 31 31 31 31 31 32 33 34 34 33 34 34 34 34 34 33 33 33 33 34 34 34 33 33 32 32 33 32
40 40 39 38 38 39 38 38 38 38 37 36 34 33 33 32 33 33 32 32 33 33 33 34 35 35 35 34 35 35 36 35 34 34 34 35 35 35 34 33 33 33 33 32
40 40 40 39 38 38 38 38 38 38 37 36 35 34 33 33 32 33 33 34 34 34 34 35 36 36 36 36 37 37 37 37 36 35 36 35 35 34 34 33 33 33 33 32
39 39 39 39 39 38 38 38 37 37 37 37 36 35 35 34 33 33 34 35 35 35 35 36 37 37 37 37 37 37 37 37 37 37 36 35 35 34 34 34 34 34 33 33
39 39 39 39 38 37 37 37 36 35 36 36 37 36 36 35 35 35 35 35 35 35 36 37 37 37 37 36 36 36 38 38 37 37 36 36 35 35 35 35 34 34 34 35
37 38 38 37 37 36 36 35 35 35 35 35 36 36 35 36 36 36 36 36 36 36 37 37 37 36 35 36 36 37 37 37 36 36 37 36 34 34 34 35 35 35 35 34
36 36 35 35 35 35 35 35 35 35 35 33 34 34 34 34 34 35 36 36 36 36 36 36 36 36 36 36 36 36 36 36 36 36 36 35 34 34 34 34 35 35 35 34
36 36 35 35 34 34 34 34 34 33 33 33 32 32 32 32 33 34 34 35 35 36 36 36 36 36 36 36 37 37 36 36 36 36 35 35 35 35 35 35 35 35 35 34
34 34 34 33 33 32 32 32 33 33 33 32 32 32 31 32 31 31 32 33 33 34 34 34 34 35 35 35 35 35 35 36 36 35 36 36 35 35 35 36 35 35 35 35
32 32 32 31 31 31 31 32 32 32 32 32 31 31 30 30 30 31 31 31 32 33 33 34 35 36 35 35 36 36 35 35 34 35 35 35 35 35 35 36 36 35 35 35
30 30 30 30 30 31 31 32 32 32 32 33 32 31 31 30 30 30 31 31 32 32 32 33 33 33 33 34 34 34 34 34 34 34 34 34 34 35 35 35 35 34 34 34
29 29 29 29 29 29 30 30 30 31 31 31 30 30 30 30 30 29 29 30 30 31 31 31 31 31 31 31 31 32 32 32 32 33 33 33 34 34 34 34 33 33 33 33
27 27 27 27 28 27 27 28 29 29 29 29 29 28 28 28 28 28 28 28 29 30 29 29 28 29 29 29 29 30 30 30 30 31 31 31 31 32 33 32 32 32 32 32
23 24 25 25 26 27 26 26 26 26 25 25 26 27 28 28 27 26 26 26 26 26 26 26 26 26 26 26 27 28 28 28 29 29 29 29 29 29 28 28 29 28 29 29
18 19 20 22 24 24 24 24 23 23 24 25 25 26 27 27 27 26 25 25 25 25 25 25 25 26 26 26 26 26 26 26 26 27 27 27 27 27 27 26 26 26 27 27
15 16 17 17 18 19 19 19 19 21 22 23 23 24 23 24 24 24 24 23 23 24 25 25 25 25 24 24 24 24 24 25 25 25 25 25 25 25 25 25 25 26 27 28
Wind_Direction
224 224 226 229 232 234 238 243 246 249 251 252 254 255 258 264 269 273 277 283 285 291 295 294 296 299 301 304 309 315 319 319 318 319 320 321 322 322 322 321 320 321 321 320
226 225 226 228 230 234 238 242 245 248 249 250 252 255 257 261 266 269 274 280 279 285 292 289 290 294 299 301 304 309 314 315 314 315 316 317 318 318 319 319 318 316 317 318
229 229 230 230 230 233 236 239 243 246 250 250 252 256 257 259 261 266 271 277 280 282 288 285 286 289 294 298 301 304 307 309 311 312 313 314 314 314 313 314 314 315 314 314
231 231 233 234 233 235 236 239 242 245 247 250 252 254 256 257 258 261 267 272 276 280 285 284 284 287 292 296 299 301 302 306 306 307 309 309 309 310 310 311 311 312 313 313
233 234 235 235 236 237 237 239 242 245 247 249 250 253 255 258 260 263 266 270 273 278 281 282 284 286 290 294 297 297 300 302 303 304 305 306 308 307 308 308 308 308 309 309
234 236 237 236 237 239 240 241 243 245 246 247 249 252 255 257 261 263 265 268 269 273 277 279 282 284 287 292 293 293 295 298 299 302 302 303 305 305 306 305 305 306 305 305
235 237 239 238 238 239 240 242 243 244 244 246 248 251 254 256 259 262 264 266 268 272 275 276 279 282 285 288 289 291 293 295 296 299 299 300 301 302 303 303 302 303 303 303
235 237 240 239 240 240 241 242 242 243 244 245 247 250 254 257 258 260 262 266 269 271 272 274 276 279 283 286 287 289 291 292 294 296 297 298 298 299 300 301 301 300 300 300
235 237 240 240 240 241 241 241 242 243 244 245 247 250 253 256 257 260 263 265 266 269 270 270 274 278 281 284 286 288 290 290 292 294 296 296 296 297 298 298 299 299 298 298
235 236 238 239 239 240 241 242 243 243 245 245 247 249 250 254 256 259 262 265 265 268 271 272 275 277 280 282 284 287 288 289 291 292 294 295 295 295 296 296 297 298 297 296
235 236 238 239 240 240 241 242 243 244 245 245 245 247 249 253 256 260 262 264 265 266 268 270 272 275 278 281 283 284 286 287 289 291 292 293 294 294 294 294 294 295 295 296
235 235 237 240 242 242 241 241 241 243 245 245 246 247 250 254 257 261 262 263 265 267 268 270 272 274 278 280 282 283 285 286 287 288 290 291 292 293 293 292 292 292 293 294
236 236 238 240 241 242 242 243 244 245 246 247 248 250 252 257 259 260 263 265 267 268 269 270 272 274 278 279 279 281 282 283 285 287 288 289 291 291 290 289 289 290 290 291
235 236 237 238 240 242 243 244 245 246 248 250 251 252 253 256 260 262 265 268 268 269 270 271 271 273 274 275 277 279 281 283 284 285 287 288 289 290 289 288 288 289 290 290
233 235 236 238 240 242 243 244 245 247 249 250 252 253 255 257 261 264 266 268 269 270 270 272 272 272 273 275 277 278 280 283 284 283 284 285 287 287 287 287 288 288 288 288
233 235 237 238 240 241 242 243 245 246 248 249 252 254 257 259 261 264 266 267 268 270 271 272 273 274 275 276 277 279 279 281 282 282 283 284 285 285 286 286 287 288 288 288
235 236 237 238 240 241 241 243 244 245 248 250 252 255 257 258 260 262 264 266 268 270 271 271 272 275 276 277 277 278 279 280 280 281 282 283 284 285 284 284 285 287 287 287
234 236 237 237 237 239 243 245 246 247 247 250 253 257 259 260 261 263 264 266 269 271 272 274 275 276 276 277 278 278 278 279 280 280 281 282 284 285 284 283 284 286 286 285
236 238 238 237 238 241 243 244 244 246 249 250 253 256 260 262 263 264 266 268 269 270 271 272 273 275 276 277 278 277 277 278 279 279 280 281 282 282 283 284 284 284 284 283
235 235 236 237 238 240 242 244 245 247 250 251 253 256 259 261 263 266 269 270 271 271 271 272 273 274 276 277 279 280 280 280 280 280 280 281 281 282 282 282 283 283 283 283
235 236 238 237 237 239 242 245 247 248 249 250 252 255 259 261 263 266 268 271 272 273 274 274 275 276 276 279 279 280 282 282 281 280 281 281 281 281 282 283 283 284 284 284
236 237 239 240 240 241 243 246 248 250 251 251 253 256 259 262 265 267 269 272 273 274 275 276 277 278 278 280 281 281 281 281 281 282 282 282 282 283 283 284 285 285 285 285
237 238 240 241 242 243 244 246 249 252 254 253 253 255 258 262 265 268 271 273 274 276 277 278 278 279 280 281 281 280 281 282 282 282 282 282 283 283 284 284 283 285 285 285
235 237 240 241 242 245 247 249 251 252 253 253 254 256 258 261 264 268 271 272 275 277 278 278 279 281 282 282 281 282 281 282 282 282 283 284 285 284 283 283 283 283 284 285
238 240 242 244 246 246 247 249 250 251 252 254 255 258 261 263 266 267 269 271 272 274 276 277 279 281 283 282 283 283 282 282 283 284 286 287 288 288 287 285 285 285 286 287
239 239 241 244 246 245 245 245 247 248 251 255 257 260 263 265 266 266 268 268 270 272 275 277 278 281 282 283 284 285 284 284 286 288 289 289 289 289 289 289 289 288 288 289
240 239 242 245 246 247 248 247 248 251 255 258 259 261 264 266 265 264 265 267 269 272 275 277 280 281 282 284 284 283 284 286 287 289 290 289 288 288 288 288 290 292 292 292
Height
5864 5869 5873 5877 5881 5884 5888 5891 5894 5897 5900 5903 5905 5907 5909 5910 5911 5911 5911 5911 5910 5910 5910 5910 5909 5908 5907 5906 5905 5903 5902 5900 5898 5896 5895 5893 5890 5889 5887 5885 5882 5880 5878 5876
5857 5862 5866 5870 5874 5878 5882 5886 5889 5892 5895 5899 5900 5902 5904 5906 5907 5907 5907 5908 5907 5907 5907 5906 5905 5905 5904 5903 5902 5900 5899 5897 5895 5893 5891 5890 5888 5886 5884 5881 5879 5877 5875 5872
5850 5855 5859 5862 5868 5872 5876 5880 5883 5886 5891 5893 5895 5897 5899 5901 5902 5903 5903 5903 5903 5903 5903 5902 5902 5901 5900 5899 5898 5897 5895 5893 5891 5890 5888 5886 5884 5882 5880 5878 5876 5874 5871 5869
5843 5849 5851 5859 5862 5866 5870 5873 5877 5881 5884 5887 5890 5892 5894 5896 5897 5898 5898 5899 5899 5899 5898 5898 5897 5897 5896 5895 5894 5892 5891 5889 5887 5886 5884 5882 5880 5878 5876 5874 5872 5870 5867 5865
5836 5840 5844 5850 5855 5859 5863 5867 5871 5875 5878 5881 5883 5886 5888 5890 5891 5892 5893 5893 5894 5894 5893 5893 5892 5892 5891 5890 5889 5888 5886 5885 5883 5881 5879 5877 5876 5874 5872 5869 5867 5865 5863 5860
5828 5832 5837 5844 5849 5852 5857 5859 5864 5868 5871 5874 5877 5880 5883 5884 5885 5886 5887 5887 5888 5888 5888 5887 5887 5886 5886 5885 5883 5882 5881 5880 5878 5876 5874 5872 5870 5868 5866 5864 5862 5860 5858 5855
5820 5824 5829 5836 5840 5844 5849 5853 5857 5860 5863 5867 5870 5873 5876 5877 5878 5879 5880 5881 5881 5881 5881 5881 5880 5880 5879 5879 5877 5876 5875 5873 5872 5870 5868 5867 5865 5863 5861 5858 5856 5854 5852 5850
5812 5817 5824 5827 5831 5836 5840 5845 5848 5852 5855 5859 5862 5865 5867 5869 5870 5872 5873 5873 5874 5874 5874 5874 5873 5873 5872 5871 5870 5869 5868 5867 5865 5864 5862 5860 5859 5857 5854 5852 5850 5848 5846 5844
5805 5811 5815 5819 5823 5827 5832 5836 5840 5844 5847 5851 5854 5857 5859 5861 5862 5864 5865 5866 5866 5866 5866 5866 5866 5866 5865 5864 5862 5861 5860 5859 5858 5857 5855 5853 5852 5850 5848 5846 5843 5842 5839 5837
5796 5802 5806 5810 5814 5819 5823 5827 5832 5835 5839 5842 5846 5849 5851 5853 5854 5855 5856 5857 5858 5858 5858 5858 5858 5858 5857 5855 5854 5853 5852 5851 5850 5849 5847 5846 5844 5842 5840 5838 5836 5834 5832 5830
5788 5793 5797 5802 5806 5811 5815 5819 5823 5827 5830 5833 5837 5840 5843 5844 5846 5846 5847 5849 5849 5850 5850 5850 5850 5849 5848 5847 5846 5845 5844 5843 5842 5840 5839 5837 5836 5834 5832 5831 5828 5826 5824 5822
5780 5785 5789 5794 5798 5802 5806 5810 5814 5818 5821 5824 5827 5831 5834 5836 5837 5838 5839 5840 5840 5840 5841 5841 5840 5840 5839 5838 5837 5837 5835 5834 5833 5831 5830 5828 5827 5825 5823 5822 5820 5818 5816 5814
5771 5776 5781 5785 5789 5793 5797 5801 5805 5809 5812 5816 5819 5822 5825 5827 5828 5829 5830 5830 5830 5831 5831 5831 5831 5831 5830 5829 5828 5827 5826 5824 5823 5821 5820 5819 5817 5816 5814 5813 5810 5808 5806 5804
5761 5766 5771 5776 5780 5784 5788 5792 5795 5799 5803 5807 5810 5813 5815 5817 5818 5819 5820 5820 5820 5821 5821 5821 5821 5821 5820 5819 5818 5817 5815 5814 5812 5811 5810 5809 5807 5806 5804 5802 5801 5799 5797 5795
5752 5757 5762 5766 5771 5775 5779 5782 5786 5790 5794 5797 5800 5803 5805 5807 5808 5809 5810 5810 5810 5810 5811 5811 5810 5810 5809 5808 5807 5806 5805 5804 5803 5801 5800 5798 5797 5795 5794 5793 5791 5789 5788 5786
5744 5749 5753 5758 5762 5766 5770 5774 5778 5782 5785 5788 5791 5793 5795 5796 5798 5799 5799 5799 5799 5799 5800 5800 5799 5799 5798 5797 5796 5795 5794 5793 5792 5791 5789 5788 5787 5785 5784 5782 5781 5779 5778 5776
5737 5741 5745 5750 5754 5758 5762 5766 5770 5773 5776 5779 5781 5783 5785 5786 5787 5788 5789 5789 5789 5789 5789 5788 5788 5788 5787 5786 5785 5785 5784 5782 5781 5780 5779 5777 5776 5774 5773 5772 5770 5769 5767 5765
5728 5732 5737 5741 5746 5750 5753 5757 5761 5764 5766 5769 5771 5773 5775 5776 5777 5777 5778 5778 5779 5779 5778 5778 5778 5777 5776 5775 5774 5773 5772 5771 5770 5769 5768 5767 5765 5764 5762 5761 5760 5758 5757 5755
5720 5725 5729 5733 5737 5741 5744 5748 5751 5754 5758 5760 5762 5764 5765 5766 5767 5768 5768 5768 5768 5768 5768 5767 5767 5766 5765 5765 5764 5762 5761 5760 5759 5758 5756 5755 5753 5752 5751 5750 5749 5748 5746 5744
5713 5717 5721 5725 5729 5733 5736 5740 5743 5746 5749 5751 5753 5754 5756 5756 5757 5758 5758 5758 5758 5758 5758 5757 5757 5756 5755 5754 5753 5751 5751 5750 5748 5747 5745 5744 5742 5741 5740 5739 5738 5736 5735 5734
5706 5710 5714 5718 5722 5725 5729 5732 5734 5737 5740 5742 5744 5745 5747 5748 5748 5748 5749 5749 5749 5748 5748 5747 5746 5746 5745 5744 5742 5741 5740 5739 5737 5736 5734 5733 5731 5730 5729 5728 5727 5726 5724 5723
5699 5703 5707 5711 5714 5718 5721 5724 5726 5729 5731 5733 5735 5736 5738 5739 5739 5740 5740 5740 5740 5739 5738 5737 5736 5735 5734 5733 5731 5730 5729 5728 5727 5726 5724 5723 5721 5720 5719 5718 5716 5715 5714 5712
5693 5697 5700 5704 5707 5710 5713 5716 5718 5720 5721 5723 5726 5728 5729 5730 5730 5731 5731 5731 5730 5730 5728 5727 5726 5725 5724 5723 5721 5720 5719 5718 5717 5716 5715 5714 5712 5711 5709 5708 5706 5705 5704 5702
5687 5690 5693 5696 5699 5702 5706 5708 5710 5712 5713 5715 5717 5719 5720 5721 5721 5722 5722 5722 5722 5721 5720 5719 5718 5716 5715 5714 5713 5712 5710 5709 5708 5707 5706 5704 5703 5701 5699 5698 5696 5695 5693 5692
5681 5684 5687 5690 5692 5695 5698 5700 5702 5704 5706 5707 5709 5711 5712 5713 5713 5714 5714 5714 5714 5713 5712 5711 5710 5709 5708 5706 5705 5704 5702 5701 5700 5698 5697 5695 5694 5692 5690 5688 5687 5685 5684 5682
5676 5678 5681 5683 5685 5687 5690 5692 5694 5696 5698 5700 5701 5703 5704 5705 5705 5706 5706 5706 5706 5705 5705 5704 5703 5702 5700 5699 5697 5696 5695 5693 5692 5691 5689 5687 5686 5684 5682 5680 5678 5677 5675 5674
5672 5674 5676 5678 5680 5682 5684 5686 5688 5690 5692 5693 5694 5695 5696 5696 5697 5697 5698 5698 5698 5698 5697 5697 5696 5694 5693 5692 5690 5689 5688 5687 5685 5684 5682 5680 5678 5676 5674 5672 5670 5669 5667 5665